OBJECT D, 65547

Orbit data source: Space-Track

You're viewing an Uncataloged Satellite

Recently launched and/or uncataloged satellites may have evolving metadata. Metadata may include but not limited to: Owner, Maufacturer, Bus, Motor, and Mission.

OBJECT D, 65547 is a satellite owned by CAST (CN) in LEO that was launched on Sat, 06 Sep 2025 UTC launched from the Taiyaun Space Center, China (TSC). Unknown objects in Earth's orbit typically refer to objects detected orbiting the Earth but have not yet been identified or cataloged. These objects could be anything from previously untracked satellites, spent rocket stages, debris from satellite collisions, or even natural meteoroids temporarily captured by Earth's gravity.

Loading next visibility...
Identifier
65547, 2025-199D
Orbit
LEO
Country
Flag of CNCN / PRC
Related business
Manufacturer
Unknown
Mission
Spacecraft
Bus & Motor
Unknown
Mass
Unknown
Launch date (UTC)
2025-09-06 (9 months ago)
Launch vehicle
Unknown
Launch site
Taiyaun Space Center, China (TSC)
Object type
Unknown
Shape & HBR
Unknown shape, 2.2 m
Radar Cross Section
Large (>1 m²)

Expand to show TLE details & history
Last TLE update: 12 hours ago

TLE from 12 hours ago
0 OBJECT D
1 65547U 25199D   26171.36962168  .00000115  00000-0  52335-4 0  9990
2 65547  85.9910  41.9083 0002722  91.6904 268.4591 14.12448827 40581
Epoch: 2026-06-20T08:52Z
TLE epoch observation values (Epoch: 2026-06-20T08:52:15.313Z)
Latitude
0.00001°
Longitude
0.25927°
Altitude
854.072 km
Speed
7.425 km/s
True Right ascension
02h 47m 37s
True Declination
0° 00' 00"
Sunlit
Object was in daylight at epoch
Visualization orbit readout
Latitude
Unknown
Longitude
Unknown
Altitude
Unknown
Speed
Unknown
Apparent Right ascension
Unknown
Apparent Declination
Unknown
Sunlit
N/A
Visualization observer readout
Local Sidereal Time
07:20:30
Azimuth
Unknown
Elevation
Unknown
Doppler factor
Unknown
Orbital elements
Apogee altitude
849.975 km
Perigee altitude
846.041 km
Semi-major axis
7,226.145 km
Eccentricity
0.00027
Inclination
85.991°
RAAN
41.9083°
Arg. of periapsis
91.6904°
True anomaly
268.42792°
Mean anomaly
268.4591°
Eccentric anomaly
268.44351°
Mean motion
3.53332 °/min
Orbital period
101.89 mins
BSTAR
0.000052335
Loading maneuver chart data...
Computing Atmospheric mass density...
Loading historical data...
Loading historical data...
Loading historical data...
Loading historical data...
Loading historical data...
Loading historical data...
Loading historical data...
Other satellites on launch #199 in the year 2025 (2025-09-06 UTC)

Documentation

Showing up to 5 results
|